User: anonymous   Login
Location: Unspecified
(0.0000°N, 0.0000°E)
Time: 23:22:17
(UTC+00:00)
Language:

OBJECT BB - Orbit

View from above orbital plane
View from above orbital plane
View from above satellite
View from above satellite

Ground track
Ground track

The orbit is defined by the following mean orbital elements,

1 67297U          26145.62027595 +.00000000 +00000-0 +41008-3 0 00004
2 67297  97.3949 221.0354 0009972  82.5958 277.6413 15.24760287    07
Epoch (UTC): 25 May 2026 14:53:11
Eccentricity: 0.0009972
inclination: 97.3949°
perigee height: 485 km
apogee height: 498 km
right ascension of ascending node: 221.0354°
argument of perigee: 82.5958°
revolutions per day: 15.24760287
mean anomaly at epoch: 277.6413°

The dashed part of the orbit path shows where the satellite is in the earth's shadow,  

DLR